Dewpoint
59 45 39 30 26 31 33 37 40 42 39 44 44 44 46 45 47 44 51 49 51 53 55 56 57 58 58 59 59 60 61 61 61 61 62 62 63 63 64 64 64 65 65 65 65 65 65 66 66
52 37 32 28 23 21 30 35 40 41 42 42 42 41 41 41 46 50 50 47 48 51 54 56 57 57 57 57 57 57 57 57 57 57 58 58 59 59 60 62 62 63 64 64 64 65 65 65 66
43 32 27 25 25 22 29 36 38 40 42 39 40 41 40 41 45 48 46 45 46 50 53 56 56 57 56 56 56 55 54 55 55 55 54 54 55 56 57 57 57 58 60 62 62 63 63 64 65
30 29 27 24 24 27 31 35 35 40 40 40 40 38 40 42 42 45 45 45 45 48 51 55 55 56 56 55 54 53 53 52 51 51 50 51 52 53 55 55 55 56 56 56 57 58 60 62 63
29 26 22 23 24 26 28 35 31 30 29 39 39 37 39 43 45 45 45 44 44 45 48 52 54 54 54 53 52 51 50 49 49 48 46 47 47 48 51 52 53 54 54 54 55 55 55 56 59
23 25 18 19 22 23 22 23 32 26 37 39 38 39 39 44 44 45 45 44 44 44 45 46 50 52 51 51 49 48 46 45 44 44 43 42 43 43 44 45 47 48 50 49 50 52 53 54 55
21 21 19 20 22 22 21 21 25 28 29 29 39 36 40 43 45 44 44 43 43 44 44 44 44 44 47 46 44 43 42 42 42 42 42 41 41 41 42 42 43 43 44 44 44 46 49 52 53
24 23 21 22 21 21 22 21 23 22 22 40 40 35 37 41 44 43 42 42 41 42 42 42 43 42 40 41 41 41 42 42 42 42 41 39 37 40 38 40 41 42 42 42 42 43 44 44 47
26 20 18 20 21 21 21 19 21 27 30 35 39 39 41 44 43 41 40 39 39 39 40 40 39 39 38 38 39 39 40 40 37 36 37 36 35 36 34 36 36 37 38 38 39 40 42 41 42
23 17 17 21 23 21 21 19 21 27 33 37 40 42 43 43 41 39 38 37 37 36 37 37 37 38 38 35 39 39 35 35 34 33 34 34 34 34 34 34 33 35 35 35 36 37 39 39 40
23 15 20 23 23 21 20 18 22 24 27 34 35 41 43 42 41 39 38 37 35 35 35 35 36 37 37 38 37 36 35 34 33 32 34 35 34 31 31 30 29 31 31 31 33 35 36 38 39
18 25 25 26 25 21 20 22 22 24 20 25 39 42 43 42 41 40 39 37 35 32 33 34 35 36 36 36 35 34 34 32 30 31 31 32 31 29 28 27 28 28 29 31 32 35 36 36 37
21 24 24 24 24 22 22 21 21 22 25 34 42 42 42 42 42 41 39 37 34 31 32 36 36 36 35 34 34 33 32 30 30 29 30 30 27 28 27 26 27 27 29 29 31 33 34 34 35
23 23 23 23 23 24 21 22 22 22 32 39 41 42 42 42 42 41 39 36 34 31 35 36 36 35 34 33 32 32 32 30 29 28 30 28 27 29 26 26 27 27 29 29 31 33 33 33 34
25 20 21 22 22 20 23 20 21 23 34 38 40 41 42 42 42 40 39 37 34 31 34 37 37 35 34 33 32 31 30 28 28 27 29 25 26 27 24 25 25 26 27 27 29 29 30 30 31
20 19 9 17 21 21 20 12 16 25 32 36 39 40 41 42 41 40 39 37 34 31 35 37 37 35 33 32 31 29 28 26 27 26 29 23 24 25 23 23 23 26 25 26 26 25 25 27 27
19 10 15 18 20 20 18 15 20 29 33 34 39 40 41 41 41 41 40 37 32 32 36 38 37 34 32 31 29 27 27 25 26 25 27 23 24 23 22 23 25 25 25 25 24 24 26 27 27
8 14 15 16 19 21 19 18 20 26 33 32 37 39 40 41 41 41 40 36 32 33 36 38 37 34 31 30 26 26 24 23 26 23 25 22 22 21 22 23 24 24 25 25 24 24 25 26 27
18 15 15 18 21 20 19 19 20 22 27 32 36 39 40 40 41 41 39 35 33 35 36 37 35 31 29 25 23 22 21 22 22 22 25 22 23 22 23 24 23 24 24 24 24 25 25 26 28
19 18 17 18 21 21 20 18 20 21 23 26 33 38 39 40 40 40 37 34 33 35 35 38 34 29 27 25 25 25 24 24 24 25 22 22 21 22 21 22 23 23 24 24 24 25 26 26 25
19 18 17 15 20 22 21 18 18 24 25 28 28 36 39 40 39 38 36 34 33 35 35 38 31 27 25 23 23 23 23 23 21 20 20 20 21 22 22 22 22 23 23 23 24 25 26 25 24
17 19 18 19 17 14 21 12 16 18 25 31 28 32 38 40 40 38 36 34 33 35 36 38 29 24 23 22 21 19 19 18 19 20 20 21 21 21 22 22 22 22 23 23 23 23 24 25 24
18 22 21 22 20 21 20 16 17 24 19 22 30 31 36 39 39 38 36 35 35 36 36 33 26 22 22 21 20 19 18 19 20 20 19 19 20 21 21 22 22 22 22 22 23 23 24 24 25
25 24 25 24 23 17 19 18 17 15 17 21 27 33 35 38 39 39 38 38 37 37 35 27 22 20 20 19 19 18 18 17 17 17 17 18 19 20 20 21 21 21 22 21 21 23 24 25 25
24 20 16 15 18 15 20 18 18 17 20 25 25 31 35 38 39 39 39 38 36 34 29 22 20 18 18 17 17 18 17 17 17 17 17 17 17 18 19 20 20 20 20 21 21 22 23 24 24
23 19 16 12 13 14 19 17 16 20 22 26 31 30 35 37 38 39 39 37 34 30 23 19 17 16 16 16 16 17 17 18 18 18 17 18 18 18 19 19 19 19 20 20 20 21 23 23 25
21 18 21 18 19 17 17 18 19 23 23 27 31 32 34 36 38 38 37 35 30 23 18 17 15 14 14 15 16 16 17 16 16 17 18 18 18 17 16 18 19 19 19 19 19 20 20 21 23
22 21 18 19 15 14 16 16 16 18 21 25 29 31 34 36 37 37 34 29 22 18 16 15 14 13 14 15 15 14 16 16 17 17 16 16 16 17 17 18 18 18 19 18 18 19 19 19 21
21 19 20 20 19 15 15 16 19 19 21 23 26 32 34 35 36 33 27 20 16 15 14 13 13 13 13 14 15 15 15 16 16 16 16 16 16 17 17 17 18 18 17 17 17 18 18 19 20
22 21 20 18 18 19 17 17 22 22 22 24 26 29 34 35 32 26 19 16 15 13 12 12 12 13 13 14 14 14 15 15 15 15 15 16 16 16 17 17 17 16 16 17 17 17 18 18 18
Wind_Speed
6 4 3 4 2 5 3 2 2 4 2 2 1 2 8 5 3 3 6 6 7 9 10 13 16 18 19 20 22 22 22 22 22 21 21 22 22 22 22 21 20 21 19 17 16 15 15 14 13
4 3 6 2 3 2 2 2 4 4 7 8 6 3 5 4 4 7 3 5 6 7 10 12 15 17 18 20 20 21 21 21 21 21 22 21 21 21 21 20 20 20 21 20 20 19 16 16 15
4 3 2 4 4 4 5 5 6 5 12 2 4 6 3 4 3 4 3 5 7 11 10 13 16 17 19 19 21 21 21 21 21 21 22 22 22 21 21 20 20 20 21 21 21 21 21 20 18
1 3 5 4 4 3 3 9 6 12 4 2 7 8 3 2 1 4 5 7 10 8 10 14 17 18 18 19 20 20 20 21 21 22 22 22 21 22 21 22 22 21 20 22 22 22 22 21 21
6 4 5 4 1 2 3 6 10 8 5 4 2 6 4 3 7 8 8 8 10 10 11 14 16 17 18 19 19 19 20 21 22 22 22 22 22 22 21 21 22 22 21 22 22 22 22 23 23
1 3 3 7 6 4 3 5 8 6 6 6 6 9 5 7 7 7 8 10 10 11 10 12 15 17 18 18 18 19 20 21 21 22 22 22 22 22 21 21 22 22 22 22 22 23 22 22 22
4 3 3 4 7 5 8 9 9 9 8 7 13 9 4 7 8 8 10 11 11 10 13 12 14 15 16 18 19 20 21 21 21 21 21 21 21 21 22 21 22 22 21 22 22 22 22 22 21
7 7 8 8 13 7 10 7 6 7 6 7 4 6 6 10 12 11 10 11 12 12 12 11 10 11 13 13 18 19 19 19 20 20 20 20 19 20 21 20 22 22 22 23 23 23 22 22 20
3 3 5 7 9 4 9 7 3 3 8 3 2 4 1 24 16 13 10 9 10 11 10 9 10 10 10 12 12 13 15 16 16 17 18 15 14 15 17 18 21 23 22 22 22 23 24 23 19
2 3 7 6 8 6 12 8 13 7 7 5 3 5 18 22 18 15 12 10 8 7 7 7 9 10 8 8 9 10 12 12 13 14 15 13 13 14 15 16 20 21 21 21 23 22 22 19 17
2 4 4 5 4 6 11 7 6 9 9 10 14 16 21 21 16 14 10 10 9 6 5 6 6 6 7 8 8 9 9 10 11 14 14 12 12 13 14 14 15 15 18 16 18 18 15 17 16
2 2 4 4 5 7 10 8 6 12 5 2 12 25 22 21 19 16 14 12 11 8 7 5 4 6 8 8 9 9 10 11 12 13 15 14 14 15 15 15 17 16 15 17 17 16 18 19 18
3 6 3 3 6 3 8 6 7 12 4 5 19 21 22 20 18 12 12 11 11 10 8 5 5 7 8 9 8 9 10 11 11 12 13 14 14 14 14 15 15 16 16 17 18 17 18 19 20
2 3 2 3 5 4 7 4 3 6 9 13 22 22 20 22 20 13 14 14 11 11 9 6 6 7 7 7 8 8 7 8 9 10 10 13 13 13 15 16 16 16 16 17 16 17 18 18 18
6 3 1 5 5 4 4 9 17 7 14 17 20 20 20 19 18 21 18 16 15 12 10 7 7 5 6 6 6 6 6 7 8 10 9 13 13 12 14 14 15 15 16 17 16 17 16 17 18
2 2 4 4 9 3 7 13 5 14 19 20 21 19 20 20 21 16 17 15 13 12 10 7 6 5 5 5 4 5 6 8 7 9 7 13 13 13 15 14 15 15 16 16 16 17 19 19 19
0 6 9 4 13 6 13 10 2 11 17 19 21 21 21 19 17 17 16 15 15 13 12 9 6 5 4 4 4 4 5 7 5 7 6 13 13 14 14 13 14 15 15 15 16 17 17 20 21
9 8 7 8 8 9 10 27 14 11 16 22 22 21 21 22 26 19 17 15 14 12 10 8 6 4 3 3 3 3 5 7 5 8 7 13 12 16 15 14 15 16 16 16 17 19 18 19 20
6 6 7 4 4 8 19 27 26 20 19 23 23 23 23 25 15 17 17 15 13 11 11 10 8 4 2 3 3 4 6 10 9 10 10 14 13 15 14 13 15 15 15 16 17 17 19 18 18
7 8 11 4 3 5 9 27 26 21 25 31 30 27 26 20 19 20 18 16 16 15 13 10 8 5 4 3 2 0 4 5 7 8 11 12 14 14 14 15 14 14 15 15 15 16 17 14 15
8 13 7 6 1 3 10 17 20 7 15 15 24 25 24 29 27 22 21 20 16 15 15 11 9 6 4 4 2 2 4 4 5 9 12 13 15 15 15 15 15 15 14 15 15 15 15 18 16
13 8 5 4 2 7 1 14 9 8 13 15 22 24 24 23 20 20 21 19 19 17 11 10 9 7 5 4 3 2 4 9 8 11 12 13 12 14 15 15 15 15 14 15 15 15 16 16 18
5 6 6 4 2 4 3 7 8 4 18 20 22 23 20 22 24 24 23 22 18 14 13 12 9 6 4 4 2 3 7 8 11 11 12 13 13 13 14 14 15 15 14 15 17 17 16 16 16
16 7 6 5 2 9 8 12 15 8 6 4 6 20 21 20 20 19 18 15 13 12 13 12 9 5 4 3 1 4 7 11 12 13 14 14 14 13 13 14 15 16 16 17 17 17 17 17 17
4 8 4 4 6 12 3 7 20 9 6 2 2 11 19 19 20 20 20 17 14 16 15 11 8 5 2 2 4 6 9 10 12 14 14 16 16 14 15 15 16 16 18 18 18 17 18 18 18
13 8 9 8 8 4 2 11 8 2 2 4 2 3 14 19 19 21 20 17 17 17 14 10 7 4 2 3 6 7 9 9 11 12 14 15 16 15 17 16 17 19 19 19 18 17 17 18 17
8 13 3 4 2 4 7 8 17 7 8 5 5 6 13 18 19 19 17 17 17 16 12 10 6 3 3 5 7 9 9 11 13 14 14 14 15 16 18 18 19 19 19 19 19 17 19 18 19
6 9 5 3 7 9 7 7 19 5 9 12 9 9 12 15 17 16 16 17 14 14 12 9 5 3 3 6 6 9 11 12 13 14 16 16 17 17 18 19 19 20 19 19 18 18 18 19 19
8 8 3 5 5 8 6 9 8 7 7 19 17 13 16 19 18 16 15 15 15 13 10 7 4 3 5 7 9 11 12 13 14 14 15 17 18 18 19 20 21 20 21 20 19 19 20 20 20
4 10 14 12 9 4 2 16 5 7 5 10 19 16 14 16 16 17 18 17 14 11 8 5 2 3 6 8 9 11 12 14 15 16 17 18 19 19 20 21 21 21 21 20 20 21 21 21 21
Wind_Direction
344 332 81 65 101 80 99 130 223 144 106 28 124 130 123 48 94 149 139 29 24 20 13 29 40 42 45 44 42 39 36 36 36 31 28 21 20 18 20 17 13 7 7 2 355 349 345 340 333
336 46 50 109 116 131 139 213 181 181 146 134 93 75 61 87 64 122 167 25 39 29 25 40 48 48 52 49 47 45 43 40 37 34 34 27 27 23 20 16 14 7 7 359 357 356 350 342 335
160 58 118 89 98 158 159 183 159 145 151 157 105 46 74 104 109 125 89 68 60 44 26 53 54 54 53 53 51 48 45 43 41 38 35 31 27 26 23 19 12 8 7 3 2 357 346 348 343
137 56 64 79 122 189 190 172 161 147 214 128 128 96 73 11 41 105 101 82 74 57 40 57 57 56 56 55 53 48 45 42 40 37 34 31 29 24 24 19 15 11 9 2 356 353 348 346 344
37 53 74 96 203 258 231 167 154 155 154 141 138 157 113 71 98 98 94 89 86 64 48 53 58 57 55 51 48 46 43 41 38 36 34 31 28 26 24 20 15 10 8 3 359 356 349 344 339
93 100 141 192 195 200 227 177 172 159 166 147 122 135 150 139 127 109 99 84 73 74 63 58 54 55 53 51 50 48 47 45 41 39 36 32 28 26 24 20 16 11 7 2 359 354 350 345 342
138 103 168 154 174 192 200 166 183 170 160 185 154 142 148 173 137 124 99 88 77 69 64 55 54 55 55 56 54 51 49 45 42 39 35 32 28 26 23 20 16 9 5 1 358 353 350 346 342
118 108 152 189 188 206 174 151 150 164 181 128 176 185 186 183 148 121 101 88 75 64 60 55 59 61 59 55 53 52 48 43 36 30 27 25 23 19 16 13 8 4 1 358 354 350 347 345 341
130 116 205 204 171 206 165 157 178 116 137 177 143 149 186 143 143 133 124 102 85 66 59 59 63 65 66 60 56 52 43 38 34 28 24 23 19 14 11 7 5 1 357 353 349 347 344 342 337
106 167 220 194 187 186 178 177 165 163 164 197 162 64 134 143 155 155 152 131 111 98 72 67 68 64 68 66 54 49 43 41 35 27 22 19 15 11 7 2 0 358 355 350 347 344 340 341 334
119 218 187 196 196 168 168 179 172 170 210 200 197 161 156 156 165 158 148 139 137 123 102 80 80 74 66 56 48 47 42 33 29 26 20 15 10 4 4 356 355 351 350 347 343 340 338 331 327
203 169 172 163 163 153 176 148 198 201 214 244 184 163 159 167 172 169 160 157 148 138 122 113 94 76 63 63 52 45 39 30 28 21 19 13 7 1 358 354 349 347 343 336 337 333 329 327 323
197 178 171 153 156 145 144 199 222 229 195 130 145 158 169 173 176 172 160 156 150 150 152 133 99 81 70 63 51 41 35 31 22 20 16 14 3 356 351 346 343 340 338 337 332 329 327 324 320
135 141 137 159 169 167 189 217 185 228 156 153 161 173 177 179 176 164 168 166 169 166 157 139 101 85 86 74 54 41 34 23 21 16 10 8 1 356 349 341 338 336 336 330 325 321 319 315 311
120 132 348 214 197 217 155 252 233 183 166 171 180 181 183 186 177 183 178 175 177 176 160 145 113 113 94 81 61 42 30 17 17 7 6 3 358 351 344 336 332 331 328 323 321 320 316 314 312
125 84 210 203 173 208 165 256 257 182 175 188 188 187 190 192 191 185 182 178 178 166 165 151 145 132 112 96 71 44 23 14 11 359 355 355 351 351 341 332 325 325 324 323 322 322 321 317 315
275 231 220 270 198 167 197 263 236 180 190 196 195 195 194 192 194 191 186 182 177 172 166 164 155 151 132 98 70 43 20 10 357 349 345 349 347 343 333 325 323 327 322 323 326 323 320 317 315
210 222 228 228 206 208 221 250 246 202 203 210 202 199 197 195 199 190 185 182 178 175 172 169 166 168 136 104 51 28 5 353 337 343 341 345 339 339 336 328 327 331 328 325 326 322 323 317 317
157 206 234 233 185 216 239 258 258 235 219 220 211 204 202 202 194 187 186 183 177 178 180 182 177 175 144 68 21 6 340 329 336 340 334 332 328 330 327 323 327 326 320 319 318 318 319 319 325
197 228 245 266 186 220 289 274 272 240 231 214 207 206 204 196 191 192 189 187 188 187 194 189 183 171 136 102 102 67 310 296 311 310 314 318 326 327 327 327 321 318 317 316 316 316 316 311 323
211 218 214 238 205 266 313 280 262 256 231 218 214 208 203 198 193 191 192 196 193 197 197 191 183 175 146 114 79 360 295 290 308 314 317 325 325 324 322 320 318 320 318 314 314 312 309 310 310
225 202 157 165 201 256 2 292 252 247 253 231 218 206 201 194 195 191 192 196 201 205 191 185 178 173 145 114 76 318 304 306 301 305 304 313 313 316 316 315 315 312 310 307 308 307 305 302 301
211 126 130 120 164 328 223 253 268 284 263 247 226 214 203 195 190 189 193 199 201 189 186 180 171 160 138 105 88 316 309 298 302 303 314 318 317 312 307 309 311 310 308 304 303 304 301 295 293
142 99 69 68 97 260 211 209 282 227 244 297 236 209 198 190 191 191 192 185 189 175 172 174 171 152 127 91 27 322 309 314 311 321 324 323 317 308 309 307 308 304 304 303 303 300 295 291 291
145 138 236 255 194 238 155 202 250 249 230 217 335 215 196 186 185 186 187 187 176 174 174 169 163 155 111 39 339 326 320 309 312 321 320 320 315 313 312 310 306 302 302 301 301 298 293 290 288
185 190 194 228 217 220 152 237 256 204 215 198 207 206 187 184 185 188 185 180 178 173 165 153 152 143 71 355 332 327 314 307 313 315 315 309 306 310 309 307 304 302 302 301 300 297 292 291 284
181 212 156 105 74 280 227 274 286 225 225 205 186 172 182 184 183 179 175 175 167 160 153 149 137 106 18 345 331 320 308 315 318 316 310 305 307 306 307 304 303 302 302 301 300 297 295 291 287
187 157 152 188 218 238 249 259 243 238 218 207 196 182 172 170 168 168 167 158 147 142 137 126 108 68 356 332 323 312 314 317 315 312 307 308 305 305 306 304 302 301 300 300 299 296 295 295 289
154 193 193 170 193 218 250 248 212 213 206 203 198 187 170 169 166 158 146 139 136 133 129 115 78 18 342 333 320 320 321 321 317 309 307 304 304 305 304 301 301 300 301 301 301 298 296 292 293
194 200 178 204 215 213 239 258 194 200 206 200 195 185 172 163 157 147 143 141 140 132 122 109 63 355 339 324 325 326 324 319 311 308 304 304 303 303 299 300 299 299 300 300 299 298 296 293 291